Regional Weather Roundup
Issued by NWS Grand Forks, ND

Home | Current Version | Previous Version | Graphics & Text | Print | Product List | Glossary On
Versions: 1 2 3 4 5 6 7 8 9 10 11 12 13 14 15 16 17 18 19 20 21 22 23 24 25 26 27 28 29 30 31 32 33 34 35 36 37 38 39 40 41 42 43 44 45 46 47 48 49 50
000
ASUS43 KFGF 041210
RWRFGF
PRAIRIE TO PINES  WEATHER ROUNDUP
NATIONAL WEATHER SERVICE EASTERN NORTH DAKOTA/GRAND FORKS ND
700 AM CDT SAT JUL 04 2015

 **SATELLITE DATA USED TO AUGMENT SKY COVER AT AUTOMATED STATIONS**
 *****  WEATHER ACROSS EASTERN NORTH DAKOTA  *****

CITY           SKY/WX    TMP DP  RH WIND       PRES   REMARKS
GRAND FORKS    CLOUDY    61  59  93 S5        29.87S FOG
6HR MIN TEMP:  58; 6HR MAX TEMP:  62;

GRAND FRKS AFB SUNNY     63  60  90 S5        29.87S FOG
GRAND FRKS NWS   N/A     63 N/A N/A S3          N/A
DEVILS LAKE    SUNNY     66  61  82 S7        29.84S
6HR MIN TEMP:  64; 6HR MAX TEMP:  70;

FARGO          SUNNY     67  61  81 S8        29.90R HAZE
WAHPETON ARPT  MOSUNNY   61  59  94 SE3       29.92S
$$

 ***** WEATHER ACROSS CENTRAL AND WESTERN NORTH DAKOTA  *****

CITY           SKY/WX    TMP DP  RH WIND       PRES   REMARKS
BISMARCK       CLEAR     64  63  96 E5        29.85F FOG
6HR MIN TEMP:  63; 6HR MAX TEMP:  67;

MINOT          PTCLDY    68  62  81 S5        29.79R HAZE
6HR MIN TEMP:  62; 6HR MAX TEMP:  68;

JAMESTOWN      CLOUDY    66  63  90 S8        29.88S FOG
6HR MIN TEMP:  64; 6HR MAX TEMP:  67;

MINOT AFB      CLEAR     65  65 100 S8        29.78S FOG
GARRISON         N/A     64  62  93 S3        29.82F
WILLISTON      CLEAR     65  61  87 S3        29.77F FOG
6HR MIN TEMP:  60; 6HR MAX TEMP:  74;

DICKINSON      CLEAR     63  59  87 S10       29.82S FOG
6HR MIN TEMP:  62; 6HR MAX TEMP:  67;

HETTINGER      PTCLDY    62  58  86 E3        29.86S FOG
6HR MIN TEMP:  60; 6HR MAX TEMP:  65;

$$

 *****  OTHER AIRPORT OBSERVATIONS IN OUR AREA  *****

CITY           SKY/WX    TMP DP  RH WIND       PRES   REMARKS
WALHALLA       FAIR      63  63 100 MISG      29.85R FOG
GRAFTON AIRPOR FAIR      61  61 100 S6        29.87S FOG
VALLEY CITY AR FAIR      63  63 100 S7        29.89S FOG
CANDO          FAIR      64  63  94 S8        29.85S FOG
CAVALIER APRT  FAIR      63  59  88 S5        29.85S FOG
GWINNER          N/A     66  66 100 S8        29.91S
SHEYENNE NWR     N/A     62  62  99 CALM      29.95
ROLLA          FAIR      59  59 100 SW7       29.86R FOG
 ***** THE ABOVE OBSERVATIONS ARE NON NWS ARE NOT QUALITY
       CONTROLLED AND MAY MIS-REPORT RAIN FOR SNOW...
$$

  *****  WEATHER ACROSS NORTHERN MINNESOTA  *****

CITY           SKY/WX    TMP DP  RH WIND       PRES   REMARKS
FLAG ISLAND    MOSUNNY   70  61  73 S7        29.90R
WARROAD        MOSUNNY   61  57  88 S6        29.91S
ROSEAU         MOSUNNY   61  55  82 S3        29.91R
HALLOCK        SUNNY     59  57  94 SE7       29.87R FOG
THF RVR FALLS  SUNNY     61  57  88 SE6       29.91S
6HR MIN TEMP:  57; 6HR MAX TEMP:  63;

BAUDETTE       SUNNY     57  53  86 SE5       29.92S
6HR MIN TEMP:  56; 6HR MAX TEMP:  59;

WASKISH        SUNNY     55  54  94 SE5       29.94S
CROOKSTON      SUNNY     61  57  88 S7        29.90S FOG
$$
  *****  WEATHER ACROSS CENTRAL AND WEST MINNESOTA  *****

CITY           SKY/WX    TMP DP  RH WIND       PRES   REMARKS
FOSSTON        SUNNY     59  55  88 SE6       29.93S FOG
BEMIDJI        SUNNY     54  53  94 CALM      29.95R
PARK RAPIDS    FOG       56  55  97 CALM      29.95S VSB 1/2
6HR MIN TEMP:  55; 6HR MAX TEMP:  62;

ELBOW LAKE     FAIR      64  61  90 SE6       29.93R FOG
6HR MIN TEMP:  63; 6HR MAX TEMP:  69;

WADENA         FOG       55  54  94 CALM      29.95S VSB 3/4
DETROIT LAKES  SUNNY     63  61  94 CALM      29.95S FOG
MOORHEAD         N/A     64  61  88 S7        29.92R FOG
FERGUS FALLS   FAIR      66  63  88 SE5       29.93R FOG
MORRIS MN      FOG       61  61 100 CALM      29.93R VSB<1/4
STAPLES        FOG       55  55 100 CALM      29.96R VSB 1/2
$$
  *****  WEATHER ELSEWHERE ACROSS MINNESOTA  *****

CITY           SKY/WX    TMP DP  RH WIND       PRES   REMARKS
DULUTH         SUNNY     61  55  81 E5        29.97R
6HR MIN TEMP:  58; 6HR MAX TEMP:  62;

INTRNTL FALLS  SUNNY     53  52  96 SE5       29.96R
6HR MIN TEMP:  46; 6HR MAX TEMP:  53;

ELY            MOSUNNY   48  48 100 CALM      29.99R FOG
CLOQUET        SUNNY     55  54  94 CALM      29.97R
WHEATON          N/A     61  59  94 E3        29.94R FOG
BRAINERD       MOSUNNY   55  55 100 CALM      29.96R FOG
6HR MIN TEMP:  52; 6HR MAX TEMP:  59;

HIBBING        SUNNY     52  51  97 CALM      29.98R
6HR MIN TEMP:  46; 6HR MAX TEMP:  53;

ALEXANDRIA     PTSUNNY   64  61  90 SE5       29.96S FOG
6HR MIN TEMP:  60; 6HR MAX TEMP:  65;

SAINT CLOUD    FOG       61  60  97 CALM      29.94S VSB 1
6HR MIN TEMP:  57; 6HR MAX TEMP:  62;

MINNEAPOLIS    PTSUNNY   66  60  81 CALM      29.95R HAZE
6HR MIN TEMP:  65; 6HR MAX TEMP:  70;

$$

  *****  WEATHER ACROSS SOUTH DAKOTA  *****

CITY           SKY/WX    TMP DP  RH WIND       PRES   REMARKS
SIOUX FALLS    MOSUNNY   62  60  93 CALM      29.96S FOG
6HR MIN TEMP:  60; 6HR MAX TEMP:  69;

BROOKINGS      SUNNY     63  59  88 SE5       29.97S
WATERTOWN      SUNNY     64  62  93 SE3       29.95R FOG
6HR MIN TEMP:  63; 6HR MAX TEMP:  69;

HURON          CLEAR     63  62  97 SE8       29.91S FOG
6HR MIN TEMP:  62; 6HR MAX TEMP:  68;

SISSETON         N/A     62  60  93 SE5       29.91R
ABERDEEN       CLEAR     63  62  97 S5        29.91S FOG
6HR MIN TEMP:  62; 6HR MAX TEMP:  66;

MITCHELL       CLEAR     63  62  97 S7        29.94R FOG
PIERRE         PTCLDY    64  62  93 SE9       29.87S
6HR MIN TEMP:  63; 6HR MAX TEMP:  69;

MOBRIDGE       PTCLDY    68  67  96 SE13      29.85F FOG
RAPID CITY     PTCLDY    61  59  93 SE8       29.88S
6HR MIN TEMP:  61; 6HR MAX TEMP:  64;

$$

  *****  SOME WEATHER IN NEARBY STATES *****

CITY           SKY/WX    TMP DP  RH WIND       PRES   REMARKS
GLASGOW MT     CLEAR     64  55  72 E10       29.73S
6HR MIN TEMP:  62; 6HR MAX TEMP:  69;

GREAT FALLS MT CLEAR     64  42  44 SW13      29.84S
6HR MIN TEMP:  59; 6HR MAX TEMP:  74;

CHEYENNE WY    PTCLDY    59  55  87 SW7       30.06S
6HR MIN TEMP:  59; 6HR MAX TEMP:  65;

SCOTTSBLUFF NE PTCLDY    65  60  84 E10       29.94F
6HR MIN TEMP:  65; 6HR MAX TEMP:  72;

OMAHA NE       CLEAR     58  56  93 CALM      30.00R FOG
6HR MIN TEMP:  56; 6HR MAX TEMP:  64;

DES MOINES IA  MOSUNNY   63  56  78 CALM      30.00R
6HR MIN TEMP:  61; 6HR MAX TEMP:  67;

DAVENPORT IA   SUNNY     58  56  93 CALM      30.00R FOG
6HR MIN TEMP:  55; 6HR MAX TEMP:  59;

CHICAGO IL     SUNNY     63  57  81 NW3       29.98R
6HR MIN TEMP:  59; 6HR MAX TEMP:  63;

EAU CLAIRE WI  SUNNY     62  59  90 CALM      29.95R
6HR MIN TEMP:  58; 6HR MAX TEMP:  65;

LA CROSSE WI   SUNNY     63  61  93 S7        29.96S
6HR MIN TEMP:  62; 6HR MAX TEMP:  65;

$$

  *****  SOME NATIONAL WEATHER *****

CITY           SKY/WX    TMP DP  RH WIND       PRES   REMARKS
LA GUARDIA NY  CLOUDY    70  61  73 NE8       29.94F
6HR MIN TEMP:  69; 6HR MAX TEMP:  72; 6HR PCP: TRACE;

RALEIGH NC     PTSUNNY   73  70  90 SW7       29.96R
6HR MIN TEMP:  69; 6HR MAX TEMP:  73;

ATLANTA GA     LGT RAIN  69  65  86 W7        30.07R
6HR MIN TEMP:  68; 6HR MAX TEMP:  73; 6HR PCP:  0.62;

NEW ORLEANS LA CLOUDY    80  74  81 SW5       30.05R
6HR MIN TEMP:  78; 6HR MAX TEMP:  80;

OKLAHOMA CITY  PTCLDY    71  69  93 CALM      29.95S
6HR MIN TEMP:  69; 6HR MAX TEMP:  78; 6HR PCP:  0.11;

ALBUQUERQUE NM MOCLDY    71  56  58 NW3       30.15S
6HR MIN TEMP:  70; 6HR MAX TEMP:  75;

SALT LAKE CITY CLOUDY    79  52  38 S6        29.91R
6HR MIN TEMP:  79; 6HR MAX TEMP:  85;

LOS ANGELES CA CLOUDY    63  60  90 CALM      29.88S
6HR MIN TEMP:  62; 6HR MAX TEMP:  63;




USA.gov is the U.S. government's official web portal to all federal, state and local government web resources and services.